Amman, Jordan

11:36 PM EEST on September 03, 2015 (GMT +0300)
Mars Mount | | Change Station
CLOSE
Current Station
Personal Weather Station
Location: Amman, MARIKH
Elevation: 2953 ft
Nearby Weather Stations

Elev 2953 ft 31.93 °N, 35.92 °E | Updated 1 minute ago

Haze
Haze
74.5 °F
Feels Like 76 °F
N
8.1
Wind Variable Wind from West
Gusts 14.5 mph

Today
High -- | Low -- °F
--% Chance of Precip.
Yesterday
High -- | Low -- °F
Precip. -- in
6:12 AM 6:58 PM
Waning Gibbous, 67% visible
Pressure 29.92 in
Visibility 3.1 miles
Clouds
Heat Index 76 °F
Dew Point 64 °F
Humidity 71%
Rainfall 0.00 in
Snow Depth Not available.
UV Not available.
Pollen Not available.
Air Quality Not available.
Flu Activity Not available.
METAR OJAM 032000Z 24004KT 5000 HZ NSC 26/17 Q1013 NOSIG
Pressure 29.92 in
Visibility 3.1 miles
Clouds
Heat Index 76 °F
Dew Point 64 °F
Humidity 71%
Rainfall 0.00 in
Snow Depth Not available.
UV Not available.
Pollen Not available.
Air Quality Not available.
Flu Activity Not available.
METAR OJAM 032000Z 24004KT 5000 HZ NSC 26/17 Q1013 NOSIG

10-Day Weather Forecast

×

Almanac

Astronomy

Sep. 03, 2015 Rise Set
Actual Time
Civil Twilight
Nautical Twilight
Astronomical Twilight
Moon
Length of Visible Light
Length of Day
Tomorrow will be .
, % of the Moon is Illuminated

Today's Extremes

Country Highs Country Lows

Community

WunderPhotos

Upload Photos

1,852,032 photos uploaded!

WunderBlogs® & News

Nearby

Air Quality

  Air Quality AQ Index Pollutant
Not available.

Snow Depth

Station Depth Elevation

Earthquake Activity

City Distance Mag. Time & Date
Minimum magnitude displayed is 2.5.

Coastal Water Temperatures

Place Temperature

Stations

Nearby Weather Stations

Station Location Temp. Windchill Dew Point Humidity Wind Precip. Elev Updated Type